TimePST,TemperatureF,Dew PointF,Humidity,Sea Level PressureIn,VisibilityMPH,Wind Direction,Wind SpeedMPH,Gust SpeedMPH,PrecipitationIn,Events,Conditions,WindDirDegrees,DateUTC
12:15 AM,42.8,32.0,66,29.93,10.0,WSW,3.5,-,N/A,,Clear,240,2011-11-24 08:15:00
12:35 AM,41.0,32.0,70,29.93,10.0,SSE,4.6,-,N/A,,Clear,160,2011-11-24 08:35:00
12:55 AM,41.0,32.0,70,29.93,10.0,SSW,4.6,-,N/A,,Clear,210,2011-11-24 08:55:00
1:15 AM,41.0,32.0,70,29.93,10.0,North,3.5,-,N/A,,Clear,350,2011-11-24 09:15:00
1:35 AM,41.0,28.4,61,29.94,10.0,NE,11.5,-,N/A,,Clear,40,2011-11-24 09:35:00
1:55 AM,46.4,26.6,46,29.94,10.0,ESE,4.6,-,N/A,,Clear,120,2011-11-24 09:55:00
2:15 AM,42.8,32.0,66,29.94,10.0,Calm,Calm,-,N/A,,Clear,0,2011-11-24 10:15:00
2:35 AM,44.6,26.6,49,29.93,10.0,East,11.5,-,N/A,,Clear,90,2011-11-24 10:35:00
2:55 AM,44.6,26.6,49,29.92,10.0,East,12.7,16.1,N/A,,Clear,100,2011-11-24 10:55:00
3:15 AM,46.4,26.6,46,29.92,10.0,ESE,15.0,21.9,N/A,,Clear,110,2011-11-24 11:15:00
3:55 AM,46.4,28.4,50,29.92,10.0,ESE,12.7,20.7,N/A,,Clear,120,2011-11-24 11:55:00
4:15 AM,46.4,28.4,50,29.92,10.0,SE,12.7,20.7,N/A,,Clear,130,2011-11-24 12:15:00
4:35 AM,44.6,28.4,53,29.92,10.0,ESE,10.4,-,N/A,,Clear,110,2011-11-24 12:35:00
4:55 AM,41.0,28.4,61,29.93,10.0,SW,4.6,-,N/A,,Clear,230,2011-11-24 12:55:00
5:35 AM,39.2,26.6,61,29.93,10.0,ESE,4.6,-,N/A,,Clear,110,2011-11-24 13:35:00
5:55 AM,39.2,26.6,61,29.94,10.0,SSE,3.5,-,N/A,,Clear,160,2011-11-24 13:55:00
6:15 AM,39.2,26.6,61,29.94,10.0,West,3.5,-,N/A,,Clear,280,2011-11-24 14:15:00
6:35 AM,37.4,28.4,70,29.95,10.0,WNW,4.6,-,N/A,,Clear,300,2011-11-24 14:35:00
6:55 AM,39.2,35.6,87,29.96,2.5,NW,11.5,-,N/A,,Clear,320,2011-11-24 14:55:00
7:35 AM,39.2,37.4,93,29.98,2.0,NW,6.9,-,N/A,,Clear,310,2011-11-24 15:35:00
7:55 AM,39.2,37.4,93,29.98,2.0,NW,4.6,-,N/A,,Clear,320,2011-11-24 15:55:00
8:15 AM,39.2,37.4,93,29.99,2.0,Calm,Calm,-,N/A,,Clear,0,2011-11-24 16:15:00
8:35 AM,41.0,37.4,87,29.99,3.0,Calm,Calm,-,N/A,,Clear,0,2011-11-24 16:35:00
8:55 AM,41.0,37.4,87,29.99,3.0,Calm,Calm,-,N/A,,Haze,0,2011-11-24 16:55:00
9:15 AM,42.8,37.4,81,30.01,3.0,NW,6.9,-,N/A,,Haze,310,2011-11-24 17:15:00
9:35 AM,42.8,37.4,81,30.02,3.0,WNW,8.1,-,N/A,,Haze,290,2011-11-24 17:35:00
9:55 AM,44.6,37.4,76,30.03,3.0,NW,6.9,-,N/A,,Haze,310,2011-11-24 17:55:00
10:15 AM,46.4,37.4,71,30.03,4.0,WNW,5.8,-,N/A,,Haze,300,2011-11-24 18:15:00
10:35 AM,48.2,37.4,66,30.03,4.0,NW,10.4,-,N/A,,Haze,320,2011-11-24 18:35:00
10:55 AM,48.2,35.6,62,30.03,5.0,NW,16.1,-,N/A,,Haze,310,2011-11-24 18:55:00
11:15 AM,48.2,33.8,58,30.03,7.0,NW,15.0,20.7,N/A,,Clear,320,2011-11-24 19:15:00
11:35 AM,50.0,32.0,50,30.03,8.0,NW,17.3,20.7,N/A,,Clear,310,2011-11-24 19:35:00
12:15 PM,48.2,33.8,58,30.03,7.0,NW,16.1,19.6,N/A,,Clear,320,2011-11-24 20:15:00
12:35 PM,48.2,35.6,62,30.03,7.0,NW,16.1,-,N/A,,Clear,320,2011-11-24 20:35:00
1:15 PM,48.2,35.6,62,30.03,8.0,NW,18.4,21.9,N/A,,Clear,320,2011-11-24 21:15:00
1:35 PM,46.4,32.0,57,30.04,9.0,NW,19.6,-,N/A,,Clear,310,2011-11-24 21:35:00
1:55 PM,46.4,33.8,62,30.04,7.0,WNW,16.1,21.9,N/A,,Clear,300,2011-11-24 21:55:00
2:15 PM,46.4,32.0,57,30.05,8.0,WNW,18.4,24.2,N/A,,Clear,300,2011-11-24 22:15:00
2:55 PM,46.4,33.8,62,30.05,7.0,NW,16.1,-,N/A,,Clear,310,2011-11-24 22:55:00
3:15 PM,46.4,35.6,66,30.06,8.0,WNW,17.3,21.9,N/A,,Clear,300,2011-11-24 23:15:00
3:35 PM,44.6,35.6,71,30.06,7.0,NW,15.0,19.6,N/A,,Clear,310,2011-11-24 23:35:00
3:55 PM,44.6,35.6,71,30.07,7.0,WNW,10.4,17.3,N/A,,Clear,300,2011-11-24 23:55:00
4:15 PM,44.6,33.8,66,30.07,7.0,WNW,12.7,-,N/A,,Clear,300,2011-11-25 00:15:00
4:55 PM,44.6,35.6,71,30.08,5.0,West,11.5,-,N/A,,Haze,280,2011-11-25 00:55:00
5:35 PM,42.8,37.4,81,30.09,7.0,WNW,10.4,-,N/A,,Clear,290,2011-11-25 01:35:00
5:55 PM,42.8,37.4,81,30.10,6.0,West,12.7,-,N/A,,Haze,280,2011-11-25 01:55:00
6:15 PM,42.8,37.4,81,30.10,6.0,West,10.4,-,N/A,,Haze,280,2011-11-25 02:15:00
6:35 PM,41.0,37.4,87,30.11,6.0,WNW,13.8,-,N/A,,Clear,300,2011-11-25 02:35:00
6:55 PM,41.0,39.2,93,30.11,5.0,WNW,15.0,23.0,N/A,,Clear,300,2011-11-25 02:55:00
7:15 PM,41.0,39.2,93,30.12,5.0,NW,17.3,23.0,N/A,,Clear,310,2011-11-25 03:15:00
7:35 PM,41.0,39.2,93,30.12,5.0,NW,18.4,26.5,N/A,,Clear,310,2011-11-25 03:35:00
7:55 PM,41.0,39.2,93,30.13,5.0,WNW,20.7,25.3,N/A,,Clear,300,2011-11-25 03:55:00
8:15 PM,41.0,39.2,93,30.13,4.0,WNW,18.4,23.0,N/A,,Clear,300,2011-11-25 04:15:00
8:35 PM,41.0,39.2,93,30.14,4.0,WNW,16.1,20.7,N/A,,Clear,300,2011-11-25 04:35:00
9:15 PM,41.0,37.4,87,30.15,5.0,WNW,11.5,-,N/A,,Clear,290,2011-11-25 05:15:00
9:35 PM,41.0,37.4,87,30.15,5.0,WNW,15.0,20.7,N/A,,Clear,300,2011-11-25 05:35:00
9:55 PM,41.0,37.4,87,30.17,5.0,WNW,11.5,-,N/A,,Clear,300,2011-11-25 05:55:00
10:15 PM,41.0,37.4,87,30.17,5.0,WNW,12.7,-,N/A,,Clear,300,2011-11-25 06:15:00
10:55 PM,41.0,37.4,87,30.18,6.0,WNW,12.7,-,N/A,,Clear,300,2011-11-25 06:55:00
11:15 PM,41.0,37.4,87,30.19,6.0,WNW,12.7,-,N/A,,Clear,300,2011-11-25 07:15:00
11:35 PM,41.0,37.4,87,30.19,6.0,WNW,16.1,-,N/A,,Clear,300,2011-11-25 07:35:00
11:55 PM,41.0,37.4,87,30.19,6.0,NW,15.0,20.7,N/A,,Clear,310,2011-11-25 07:55:00